Time,TemperatureF,DewpointF,PressureIn,WindDirection,WindDirectionDegrees,WindSpeedMPH,WindSpeedGustMPH,Humidity,HourlyPrecipIn,Conditions,Clouds,dailyrainin,SoftwareType,DateUTC
2015-05-26 00:00:00,72.1,69.7,30.13,ESE,105,0.0,0.0,92,0.00,,---,0.01,VWS V13.01,2015-05-26 05:00:00,
2015-05-26 00:05:00,72.0,69.6,30.13,ESE,105,0.0,0.0,92,0.00,,---,0.00,VWS V13.01,2015-05-26 05:05:00,
2015-05-26 00:10:00,72.0,69.6,30.13,ESE,105,0.0,0.0,92,0.00,,---,0.00,VWS V13.01,2015-05-26 05:10:00,
2015-05-26 00:15:00,72.0,69.6,30.13,ESE,105,0.0,0.0,92,0.00,,---,0.00,VWS V13.01,2015-05-26 05:15:00,
2015-05-26 00:20:00,71.9,69.4,30.12,ESE,105,0.0,0.0,92,0.00,,---,0.00,VWS V13.01,2015-05-26 05:20:00,
2015-05-26 00:30:00,71.8,69.3,30.12,ESE,105,0.0,0.0,92,0.00,,---,0.00,VWS V13.01,2015-05-26 05:30:00,
2015-05-26 00:35:00,71.8,69.3,30.12,ESE,105,0.0,0.0,92,0.00,,---,0.00,VWS V13.01,2015-05-26 05:35:00,
2015-05-26 00:40:00,71.8,69.3,30.12,ESE,105,0.0,0.0,92,0.00,,---,0.00,VWS V13.01,2015-05-26 05:40:00,
2015-05-26 00:45:00,71.7,69.3,30.12,ESE,104,0.0,1.0,92,0.00,,---,0.00,VWS V13.01,2015-05-26 05:45:00,
2015-05-26 00:50:00,71.7,69.3,30.11,ESE,105,0.0,0.0,92,0.00,,---,0.00,VWS V13.01,2015-05-26 05:50:00,
2015-05-26 00:55:00,71.7,69.3,30.11,NE,54,0.0,1.0,92,0.00,,---,0.00,VWS V13.01,2015-05-26 05:55:00,
2015-05-26 01:00:00,71.7,69.6,30.12,NE,56,0.0,0.0,93,0.00,,---,0.00,VWS V13.01,2015-05-26 06:00:00,
2015-05-26 01:05:00,71.6,69.5,30.11,ENE,58,0.0,1.0,93,0.00,,---,0.00,VWS V13.01,2015-05-26 06:05:00,
2015-05-26 01:10:00,71.5,69.4,30.11,East,94,0.0,1.0,93,0.00,,---,0.00,VWS V13.01,2015-05-26 06:10:00,
2015-05-26 01:15:00,71.5,69.4,30.11,ESE,103,0.0,0.0,93,0.00,,---,0.00,VWS V13.01,2015-05-26 06:15:00,
2015-05-26 01:20:00,71.5,69.4,30.11,ESE,103,0.0,1.0,93,0.00,,---,0.00,VWS V13.01,2015-05-26 06:20:00,
2015-05-26 01:25:00,71.5,69.4,30.11,ESE,103,0.0,1.0,93,0.00,,---,0.00,VWS V13.01,2015-05-26 06:25:00,
2015-05-26 01:30:00,71.4,69.3,30.11,ESE,103,0.0,1.0,93,0.00,,---,0.00,VWS V13.01,2015-05-26 06:30:00,
2015-05-26 01:35:00,71.4,69.3,30.11,ESE,103,0.0,0.0,93,0.00,,---,0.00,VWS V13.01,2015-05-26 06:35:00,
2015-05-26 01:40:00,71.4,69.3,30.12,ESE,103,0.0,0.0,93,0.00,,---,0.00,VWS V13.01,2015-05-26 06:40:00,
2015-05-26 01:45:00,71.3,69.2,30.12,ESE,103,0.0,0.0,93,0.00,,---,0.00,VWS V13.01,2015-05-26 06:45:00,
2015-05-26 01:50:00,71.3,69.2,30.11,ESE,103,0.0,0.0,93,0.00,,---,0.00,VWS V13.01,2015-05-26 06:50:00,
2015-05-26 01:55:00,71.2,69.1,30.11,ESE,103,0.0,0.0,93,0.00,,---,0.00,VWS V13.01,2015-05-26 06:55:00,
2015-05-26 02:00:00,71.1,69.0,30.11,ESE,103,0.0,1.0,93,0.00,,---,0.00,VWS V13.01,2015-05-26 07:00:00,
2015-05-26 02:05:00,71.0,68.9,30.11,ESE,102,0.0,0.0,93,0.00,,---,0.00,VWS V13.01,2015-05-26 07:05:00,
2015-05-26 02:10:00,70.9,68.8,30.11,ESE,102,0.0,1.0,93,0.00,,---,0.00,VWS V13.01,2015-05-26 07:10:00,
2015-05-26 02:15:00,70.8,68.7,30.11,ESE,102,0.0,0.0,93,0.00,,---,0.00,VWS V13.01,2015-05-26 07:15:00,
2015-05-26 02:20:00,70.7,68.6,30.11,ESE,102,0.0,0.0,93,0.00,,---,0.00,VWS V13.01,2015-05-26 07:20:00,
2015-05-26 02:25:00,70.6,68.5,30.11,ESE,102,0.0,0.0,93,0.00,,---,0.00,VWS V13.01,2015-05-26 07:25:00,
2015-05-26 02:30:00,70.5,68.4,30.10,ESE,102,0.0,0.0,93,0.00,,---,0.00,VWS V13.01,2015-05-26 07:30:00,
2015-05-26 02:35:00,70.4,68.3,30.10,ESE,102,0.0,1.0,93,0.00,,---,0.00,VWS V13.01,2015-05-26 07:35:00,
2015-05-26 02:40:00,70.3,68.2,30.10,ESE,102,0.0,1.0,93,0.00,,---,0.00,VWS V13.01,2015-05-26 07:40:00,
2015-05-26 02:45:00,70.2,68.1,30.10,ESE,109,0.0,0.0,93,0.00,,---,0.00,VWS V13.01,2015-05-26 07:45:00,
2015-05-26 02:50:00,70.1,68.0,30.10,ESE,109,0.0,1.0,93,0.00,,---,0.00,VWS V13.01,2015-05-26 07:50:00,
2015-05-26 02:55:00,70.0,67.9,30.10,ESE,103,0.0,2.0,93,0.00,,---,0.00,VWS V13.01,2015-05-26 07:55:00,
2015-05-26 03:00:00,69.9,67.8,30.10,ESE,103,0.0,2.0,93,0.00,,---,0.00,VWS V13.01,2015-05-26 08:00:00,
2015-05-26 03:05:00,69.9,67.8,30.10,ESE,103,0.0,0.0,93,0.00,,---,0.00,VWS V13.01,2015-05-26 08:05:00,
2015-05-26 03:10:00,69.8,67.7,30.09,East,98,0.0,0.0,93,0.00,,---,0.00,VWS V13.01,2015-05-26 08:10:00,
2015-05-26 03:15:00,69.8,67.7,30.09,East,94,0.0,1.0,93,0.00,,---,0.00,VWS V13.01,2015-05-26 08:15:00,
2015-05-26 03:20:00,69.8,67.7,30.09,East,97,0.0,3.0,93,0.00,,---,0.00,VWS V13.01,2015-05-26 08:20:00,
2015-05-26 03:25:00,69.7,67.6,30.09,East,97,0.0,4.0,93,0.00,,---,0.00,VWS V13.01,2015-05-26 08:25:00,
2015-05-26 03:30:00,69.7,67.6,30.09,East,98,0.0,4.0,93,0.00,,---,0.00,VWS V13.01,2015-05-26 08:30:00,
2015-05-26 03:35:00,69.7,67.6,30.09,ESE,104,0.0,1.0,93,0.00,,---,0.00,VWS V13.01,2015-05-26 08:35:00,
2015-05-26 03:40:00,69.7,67.6,30.09,ESE,103,0.0,0.0,93,0.00,,---,0.00,VWS V13.01,2015-05-26 08:40:00,